Location: Newark
(48.2308°N, 120.8549°W)
Time: 13:51:05
(UTC+00:00)

Transit 2A Rocket - Pass Details

Date: 01 June 2020
Orbit: 584 x 919 km, 66.7° (Epoch: 07 July)

Event Time Altitude Azimuth Distance (km) Brightness Sun altitude
Rises 13:24:14 0° 326° (NW) 3,467 8.3 10.5°
Reaches altitude 10° 13:26:51 10° 334° (NNW) 2,561 7.7 10.9°
Maximum altitude 13:32:30 41° 43° (NE) 1,312 7.3 11.8°
Drops below altitude 10° 13:38:16 10° 113° (ESE) 2,611 8.6 12.7°
Sets 13:40:57 0° 120° (ESE) 3,541 9.1 13.1°
